Location: Marne
(34.0056°N, 117.9064°W)
Time: 03:20:35
(UTC+00:00)

Cosmos 1825 Rocket - Pass Details

Date: 18 January 2020
Orbit: 604 x 631 km, 82.5° (Epoch: 16 February)

Event Time Altitude Azimuth Distance (km) Brightness Sun altitude
Rises 02:18:09 0° 175° (S) 2,881 7.1 -14.6°
Reaches altitude 10° 02:20:25 10° 170° (S) 1,975 6.2 -15.1°
Maximum altitude 02:24:40 54° 93° (E) 748 3.6 -16.0°
Enters shadow 02:28:37 12° 18° (NNE) 1,854 5.7 -16.7°
